Destin, Florida, United States (32540)
Lat: 30.39N, Lon: 86.5W
Wx Zone: FLZ006
Local Info
Past Weather Observations for Saturday, December 20, 2014

NOTE: This archive is for the closest National Weather Service station to Destin. Information may differ from the station used for current weather conditions.

Click here for Long-term Archive

Time Weather Temperature Dewpoint Humidity Pressure Winds Precip Visibility
23:53
Overcast
54°F / 12°C 52°F / 11°C 94% 30.09 in
(1019 mb)
NE 9.2 mph
(NE 15 kph)
- 10SM
23:15
Overcast
54°F / 12°C 52°F / 11°C 94% 30.12 in
(1020 mb)
NE 10.4 mph
(NE 17 kph)
- 10SM
23:05
Overcast
54°F / 12°C 52°F / 11°C 94% 30.12 in
(1020 mb)
NNE 10.4 mph
(NNE 17 kph)
- 10SM
22:53
Overcast
54°F / 12°C 52°F / 11°C 94% 30.12 in
(1020 mb)
N 8.1 mph
(N 13 kph)
- 10SM
22:08
Overcast
54°F / 12°C 52°F / 11°C 94% 30.12 in
(1020 mb)
NNE 10.4 mph
(NNE 17 kph)
- 10SM
21:53
Overcast
54°F / 12°C 52°F / 11°C 94% 30.12 in
(1020 mb)
NE 8.1 mph
(NE 13 kph)
- 10SM
21:02
Overcast
54°F / 12°C 52°F / 11°C 94% 30.12 in
(1020 mb)
NNE 6.9 mph
(NNE 11 kph)
- 10SM
20:53
Overcast
54°F / 12°C 52°F / 11°C 94% 30.12 in
(1020 mb)
NNE 8.1 mph
(NNE 13 kph)
- 10SM
19:53
Overcast
54°F / 12°C 52°F / 11°C 94% 30.12 in
(1020 mb)
N 9.2 mph
(N 15 kph)
- 10SM
18:53
Overcast
55°F / 13°C 52°F / 11°C 88% 30.12 in
(1020 mb)
NE 9.2 mph
(NE 15 kph)
- 10SM
17:53
Overcast
55°F / 13°C 52°F / 11°C 88% 30.09 in
(1019 mb)
NE 6.9 mph
(NE 11 kph)
- 10SM
16:53
Overcast
55°F / 13°C 54°F / 12°C 94% 30.09 in
(1019 mb)
NE 5.8 mph
(NE 9 kph)
- 10SM
15:53
Overcast
54°F / 12°C 54°F / 12°C 100% 30.06 in
(1018 mb)
NE 6.9 mph
(NE 11 kph)
- 10SM
14:53
Overcast
54°F / 12°C 54°F / 12°C 100% 30.06 in
(1018 mb)
NNE 6.9 mph
(NNE 11 kph)
0.03 in
(0.76 mm)
8SM
14:28
Overcast
Light Rain
54°F / 12°C 52°F / 11°C 94% 30.09 in
(1019 mb)
NE 8.1 mph
(NE 13 kph)
0.03 in
(0.76 mm)
4SM
14:11
Overcast
Rain
54°F / 12°C 52°F / 11°C 94% 30.09 in
(1019 mb)
NNE 6.9 mph
(NNE 11 kph)
0.02 in
(0.51 mm)
2 1/2SM
13:53
Overcast
Rain
54°F / 12°C 52°F / 11°C 94% 30.09 in
(1019 mb)
NE 5.8 mph
(NE 9 kph)
0.06 in
(1.52 mm)
3SM
13:23
Overcast
Light Rain
54°F / 12°C 52°F / 11°C 94% 30.06 in
(1018 mb)
NE 5.8 mph
(NE 9 kph)
0.04 in
(1.02 mm)
4SM
13:02
Overcast
Rain
54°F / 12°C 52°F / 11°C 94% 30.09 in
(1019 mb)
NE 4.6 mph
(NE 7 kph)
0.01 in
(0.25 mm)
2 1/2SM
12:53
Overcast
Light Rain
54°F / 12°C 52°F / 11°C 94% 30.09 in
(1019 mb)
NE 5.8 mph
(NE 9 kph)
0.01 in
(0.25 mm)
4SM
12:20
Overcast
54°F / 12°C 52°F / 11°C 94% 30.09 in
(1019 mb)
NNE 8.1 mph
(NNE 13 kph)
0.00 in
(0.00 mm)
10SM
11:53
Overcast
Light Rain
52°F / 11°C 52°F / 11°C 100% 30.12 in
(1020 mb)
NE 8.1 mph
(NE 13 kph)
0.02 in
(0.51 mm)
10SM
11:49
Overcast
52°F / 11°C 52°F / 11°C 100% 30.12 in
(1020 mb)
NNE 6.9 mph
(NNE 11 kph)
0.02 in
(0.51 mm)
10SM
11:12
Overcast
Light Rain
52°F / 11°C 50°F / 10°C 94% 30.15 in
(1021 mb)
NE 8.1 mph
(NE 13 kph)
0.01 in
(0.25 mm)
4SM
11:05
Overcast
Light Rain
52°F / 11°C 50°F / 10°C 94% 30.15 in
(1021 mb)
NE 6.9 mph
(NE 11 kph)
0.01 in
(0.25 mm)
3SM
10:53
Overcast
Rain
52°F / 11°C 50°F / 10°C 94% 30.15 in
(1021 mb)
NE 8.1 mph
(NE 13 kph)
0.10 in
(2.54 mm)
2SM
10:39
Overcast
Light Rain
52°F / 11°C 50°F / 10°C 94% 30.15 in
(1021 mb)
NE 5.8 mph
(NE 9 kph)
0.07 in
(1.78 mm)
3SM
09:53
Overcast
Rain
52°F / 11°C 48°F / 9°C 88% 30.15 in
(1021 mb)
NE 8.1 mph
(NE 13 kph)
0.02 in
(0.51 mm)
2 1/2SM
09:38
Overcast
Light Rain
52°F / 11°C 48°F / 9°C 88% 30.15 in
(1021 mb)
NE 6.9 mph
(NE 11 kph)
0.01 in
(0.25 mm)
7SM
08:53
Overcast
Light Rain
52°F / 11°C 48°F / 9°C 88% 30.15 in
(1021 mb)
N 8.1 mph
(N 13 kph)
0.00 in
(0.00 mm)
10SM
07:53
Overcast
Light Rain
52°F / 11°C 48°F / 9°C 88% 30.15 in
(1021 mb)
NE 10.4 mph
(NE 17 kph)
0.00 in
(0.00 mm)
10SM
06:53
Overcast
50°F / 10°C 48°F / 9°C 94% 30.12 in
(1020 mb)
NE 11.5 mph
(NE 19 kph)
0.01 in
(0.25 mm)
10SM
05:53
Overcast
Light Rain
48°F / 9°C 46°F / 8°C 94% 30.12 in
(1020 mb)
NNE 11.5 mph
(NNE 19 kph)
0.01 in
(0.25 mm)
7SM
05:18
Overcast
50°F / 10°C 48°F / 9°C 94% 30.09 in
(1019 mb)
NNE 12.7 mph
(NNE 20 kph)
0.00 in
(0.00 mm)
10SM
04:53
Overcast
50°F / 10°C 46°F / 8°C 88% 30.09 in
(1019 mb)
NE 10.4 mph
(NE 17 kph)
0.00 in
(0.00 mm)
10SM
03:53
Overcast
Light Rain
50°F / 10°C 48°F / 9°C 94% 30.06 in
(1018 mb)
NE 8.1 mph
(NE 13 kph)
0.00 in
(0.00 mm)
10SM
02:53
Overcast
52°F / 11°C 48°F / 9°C 88% 30.06 in
(1018 mb)
ENE 10.4 mph
(ENE 17 kph)
- 10SM
01:53
Overcast
50°F / 10°C 48°F / 9°C 94% 30.06 in
(1018 mb)
NE 10.4 mph
(NE 17 kph)
0.01 in
(0.25 mm)
10SM
00:53
Overcast
Light Rain
50°F / 10°C 48°F / 9°C 94% 30.09 in
(1019 mb)
NE 10.4 mph
(NE 17 kph)
0.00 in
(0.00 mm)
10SM
Time Weather Temperature Dewpoint Humidity Pressure Winds Precip Visibility


Weather for websites

WeatherForYou.com, LLC is not responsible for any damages or problems caused by this service. Current weather conditions are obtained from the closest station including government and personal stations which may have varying degrees of accuracy. Weather forecasts are derived from the NOAA NDFD. Like all things, this site belongs to Jesus Christ... He just trusts me to maintain it. If you have any questions or comments email webmaster@weatherforyou.com

Copyright © 2014, WeatherForYou.com LLC. All rights reserved.